Zurück zum Katalog

STARLINK-11349

AktivKommunikationVLEO
NORAD 61544·PAYLOAD·🇺🇸 United States

Gestartet Oct 15, 2024 von Vandenberg Space Force Base

Loading…

Nächste Überflüge (nächste 24 Stunden)

TLE

AktuellSource: CelesTrak SupGP

Epoche: Sep 14, 2026, 22:11 UTC

1 61544C 24184N   26257.92479167  .00026831  00000+0  22093-3 0  2571
2 61544  53.1571  23.5431 0001195  74.9376  43.3478 15.69705785    17

Verfolge STARLINK-11349 in Echtzeit mit AllMySat

Download on the App Store